Location: Mahannah Oil Field
(37.4664°N, 96.6003°W)
Time: 02:28:03
(UTC+00:00)

Tiros 1 despin weight - Pass Details

Date: 27 January 2021
Orbit: 593 x 642 km, 48.2° (Epoch: 02 March)

Event Time Altitude Azimuth Distance (km) Brightness Sun altitude
Rises 01:37:35 0° 304° (WNW) 2,850 ? -22.5°
Reaches altitude 10° 01:39:54 10° 304° (NW) 1,939 ? -22.9°
Maximum altitude 01:44:21 89° 227° (SW) 599 ? -23.8°
Enters shadow 01:44:21 89° 210° (SSW) 599 ? -23.8°
Drops below altitude 10° 01:48:44 10° 126° (SE) 1,916 - -24.7°
Sets 01:51:01 0° 126° (SE) 2,813 - -25.1°
